Preview of NWS' New Version of Forecast
This preview is not operational and should not be used for support decisions.

Regional Weather Roundup (RWR)

Issued by National Weather Service (NWS)

                            
000
ASUS43 KTOP 202008
RWRKS 

WEATHER ROUNDUP FOR KANSAS
NATIONAL WEATHER SERVICE GOODLAND KS
300 PM CDT TUE AUG 20 2019

NOTE:  "FAIR" INDICATES FEW OR NO CLOUDS BELOW 12,000 FEET WITH NO
SIGNIFICANT WEATHER AND/OR OBSTRUCTIONS TO VISIBILITY.

KSZ001>006-013>018-027>032-041>047-202100-
NORTHWEST KANSAS
  
CITY           SKY/WX    TMP DP  RH WIND       PRES   REMARKS
GOODLAND       SUNNY     94  64  37 SE12      30.00F HX  95           
HAYS           SUNNY    100  69  36 S8        30.06F HX 106           
HILL CITY      SUNNY    100  66  32 CALM      29.96S HX 104           
RUSSELL        SUNNY     99  70  38 S8        29.92F HX 106           
$$

KSZ061>065-074>080-084>089-202100-
SOUTHWEST KANSAS
  
CITY           SKY/WX    TMP DP  RH WIND       PRES   REMARKS
DODGE CITY     SUNNY    102  60  25 S18G28    29.99F HX 103           
ELKHART        SUNNY    100  61  27 SW22G28   30.05S HX 101           
GARDEN CITY    SUNNY    103  58  22 S21G30    29.98F HX 102           
GREAT BEND     SUNNY     96  73  47 S9        29.94F HX 105           
LIBERAL        SUNNY     99  56  23 SW15G22   30.01F HX  97           
PRATT          SUNNY    103  59  22 S15       29.96F HX 103           
$$

KSZ066>073-081>083-090>101-202100-
SOUTHEAST KANSAS
  
CITY           SKY/WX    TMP DP  RH WIND       PRES   REMARKS
CHANUTE        SUNNY     95  75  52 S12       30.00S HX 107           
COFFEYVILLE    SUNNY     93  76  57 S9        29.98F HX 105           
HUTCHINSON     SUNNY    101  71  38 S14G21    29.94F HX 109           
MEDICINE LODGE   N/A    103  65  29 S10G22    29.93F HX 106           
NEWTON           N/A     94  75  54 S16       29.97F HX 105           
PARSONS        SUNNY     95  78  58 S6        30.00F HX 111           
WICHITA INTL   MOSUNNY  102  70  35 S15       29.94F HX 110           
WICHITA JABRA  SUNNY     97  75  49 S13       29.95F HX 109           
WICHITA MCCONL SUNNY    100  68  34 SE16      29.96F HX 106           
$$

KSZ007>012-019>026-033>040-048>060-102>105-202100-
NORTHEAST KANSAS
  
CITY           SKY/WX    TMP DP  RH WIND       PRES   REMARKS
CONCORDIA      SUNNY     93  75  55 NE6       29.95S HX 104           
EMPORIA        SUNNY     96  77  54 SE10      29.97S HX 111           
LAWRENCE       SUNNY     94  75  54 SE16G26   30.00F HX 105           
MANHATTAN      SUNNY     95  79  59 E10       29.95S HX 112           
MARYSVILLE     SUNNY     91  77  62 SE6       29.97S HX 105           
OLATHE IND     SUNNY     90  74  59 E13       30.04S HX  99           
OLATHE EXE     SUNNY     90  75  61 SE10G21   30.03F HX 100           
SALINA         SUNNY     99  74  44 S5        29.93S HX 110           
TOPEKA BILLARD SUNNY     90  77  65 E10       29.98F HX 103           
TOPEKA FORBES  SUNNY     93  77  59 SE12      29.99F HX 107           
$$